Location: Unspecified
(0.0000°N, 0.0000°E)
Time: 11:34:26
(UTC+00:00)

Tiros 1 despin weight - Pass Details

Date: 22 November 2019
Orbit: 594 x 642 km, 48.2° (Epoch: 13 December)

Event Time Altitude Azimuth Distance (km) Brightness Sun altitude
Rises 20:16:03 0° 330° (NNW) 2,875 - -34.8°
Reaches altitude 10° 20:18:24 10° 335° (NNW) 1,980 - -35.3°
Maximum altitude 20:22:50 52° 51° (NE) 779 - -36.4°
Drops below altitude 10° 20:27:21 10° 128° (SE) 2,014 - -37.4°
Sets 20:29:44 0° 132° (SE) 2,930 - -37.9°
